Вернуться в каталог

SL-14 DEB

АктивенPO
NORAD 25221·DEBRIS·🇷🇺 Russia

Запущен Aug 18, 1987 с Plesetsk Cosmodrome

Loading…

Ближайшие Пролёты (ближайшие 24 часа)

TLE

СвежийSource: Space-Track

Эпоха: Sep 14, 2026, 15:08 UTC

1 25221U 87068AY  26257.63112932  .00000335  00000-0  42388-3 0  9999
2 25221  82.3000  25.6089 0165018 190.3698 184.7906 13.55646885410421

Отслеживайте SL-14 DEB в реальном времени с AllMySat

Download on the App Store